Weather Roundup
Issued by NWS Chicago, IL

Home | Current Version | Previous Version | Graphics & Text | Print | Product List | Glossary On
Versions: 1 2 3 4 5 6 7 8 9 10 11 12 13 14 15 16 17 18 19 20 21 22 23 24 25 26 27 28 29 30 31 32 33 34 35 36 37 38 39 40 41 42 43 44 45 46 47 48 49 50
000
NZUS59 KLOT 270708
HRRLOT

CHICAGO AREA WEATHER ROUNDUP
NATIONAL WEATHER SERVICE CHICAGO/ROMEOVILLE IL
200 AM CDT WED JUL 27 2016

NOTE: "FAIR" INDICATES FEW OR NO CLOUDS BELOW 12,000 FEET WITH NO
SIGNIFICANT WEATHER AND/OR OBSTRUCTIONS TO VISIBILITY.

* THESE STATIONS ARE NOT UNDER NWS QUALITY CONTROL. THEY ALSO MAY NOT
  REPORT WEATHER SUCH AS PRECIPITATION OR FOG.

ILZ005-006-012>014-019>023-270800-
NORTHEAST ILLINOIS

CITY           SKY/WX    TMP DP  RH WIND       PRES   REMARKS
OHARE          CLEAR     73  64  73 CALM      29.99F
MIDWAY         CLEAR     76  61  59 S3        29.99F
AURORA         CLEAR     67  65  93 CALM      30.00F
LANSING*       PTCLDY    69  62  78 CALM      30.00S
JOLIET*        CLEAR     70  69  94 CALM      30.00S
WAUKEGAN       CLEAR     67  64  90 CALM      29.99F
DUPAGE AIRPORT CLEAR     70  64  81 CALM      29.99F
WHEELING       CLEAR     70  64  81 CALM      30.01S
KANKAKEE*      CLEAR     68  67  95 CALM      30.01F
MORRIS*        CLEAR     69  67  92 CALM      29.99F
LEWIS AIRPORT* CLEAR     69  65  86 SW3       30.00F
NORTHERLY ISL    N/A     74  62  66 SW2         N/A
$$

WIZ051-052-058>065-066-070>072-270800-
SOUTHEAST WISCONSIN

CITY           SKY/WX    TMP DP  RH WIND       PRES   REMARKS
MILWAUKEE      CLEAR     75  65  70 CALM      29.99S
KENOSHA*       CLEAR     66  62  87 S3        30.00F
RACINE*        CLEAR     72  63  73 SW5       30.01S
BURLINGTON     CLEAR     63  62  97 CALM      30.00S
WAUKESHA       CLEAR     64  63  94 CALM      30.02R
$$

INZ001>003-010>013-019-020-270800-
NORTHWEST INDIANA

CITY           SKY/WX    TMP DP  RH WIND       PRES   REMARKS
GARY*          CLEAR     67  67 100 CALM      30.00F
MICHIGAN CITY* NOT AVBL
RENSSELAER*    NOT AVBL
VALPARAISO     CLEAR     66  64  93 CALM      30.01F
$$

LMZ740>746-270800-
SOUTHERN LAKE MICHIGAN

STATION/POSITION TIME  SKY/WX   TEMP WIND        PRES    VSBY
                                AIR  DIR/SP/G
                 (UTC)          (F)  (DEG/KT/KT) (MB)    (MI)
HARRISON CRIB    0600            76  190/  7/  8   N/A
BURNHAM HARBOR   0700            75  210/  2/  4   N/A
CALUMET HARBOR   0600            74  200/  1/  2 1015.4F
BURNS HARBOR     0601            72  190/  4/  7 1016.3F
MICHIGAN CITY    0600            71  110/  2/  2   N/A
$$

ABBREVIATIONS USED IN REMARKS
   TC - TEMPERATURE IN CELSIUS
  WCI - WIND CHILL INDEX
   HX - HEAT INDEX
  VSB - VISIBILITY
$$



USA.gov is the U.S. government's official web portal to all federal, state and local government web resources and services.